Audi TT Forum banner

General Information

Name
2000 Audi TT MK1 - 1.8T (quattro)
Color
Dessert Green Pearl Effect
History
100000 Kilometers
PriceTotal ModsTotal SpentTotal Topic ViewsVehicle Rating
0.00 GBP1050 GBP52024.65

Modifications

Engine
ModificationsProduct ratingPurchased fromPricePurchase ratingInstalled byInstallation costInstallation ratingCreatedUpdatedComments
APR Motorsport / APR Stage 2+ Remap0Audi Specialists0.000Garage0.00024 Jul 2009, 17:1524 Jul 2009, 17:15
APR Motorsport / APR R1 Diverter Valve0Audi Specialists0.000Garage0.00024 Jul 2009, 17:1724 Jul 2009, 17:17
ECS- Tuning / N75 RACE0ECS- Tuning0.000(1) Self Fit / DIY0.00024 Jul 2009, 17:1824 Jul 2009, 17:18
(4) Audi OEM Parts / Main Dealer / 4.0 Bar Fuel Pressure Regulator0(4) Audi OEM Parts / Main Dealer0.000Garage0.00024 Jul 2009, 17:2024 Jul 2009, 17:20
Samco / Silicone Hoses0Audi Specialists0.000Garage0.00024 Jul 2009, 17:2124 Jul 2009, 17:21
Mocal / Oil Cooler (13-lines)0Audi Specialists0.000Garage0.00024 Jul 2009, 17:2324 Jul 2009, 17:23
Coolingmist / Coolingmist Water Injection0Audi Specialists0.000Garage0.00024 Jul 2009, 17:2624 Jul 2009, 17:26
Neuspeed / Power Pulleys Kit0Audi Specialists0.000Garage0.00024 Jul 2009, 17:2724 Jul 2009, 17:27
Neuspeed / 180F Water Thermostat0Audi Specialists0.000Garage0.00024 Jul 2009, 17:2824 Jul 2009, 17:28
Neuspeed / 180F Fan Switch0Audi Specialists0.000Garage0.00024 Jul 2009, 17:3024 Jul 2009, 17:30
ECS- Tuning / ECS Polyurethane Engine Mount0ECS- Tuning0.000Garage0.00024 Jul 2009, 17:3124 Jul 2009, 17:31
ECS- Tuning / Dogbone Mount0ECS- Tuning0.000Garage0.00024 Jul 2009, 17:3324 Jul 2009, 17:33
Evolution Motorsport / V-flow Air Induction System with Heat Shield0Audi Specialists0.000(1) Self Fit / DIY0.00024 Jul 2009, 17:3924 Jul 2009, 17:39
ModShak / MOFO: Mass Oxygen Flow Optimizer0ModShak0.000(1) Self Fit / DIY0.00024 Jul 2009, 17:4224 Jul 2009, 17:42
Sprint Booster / Sprint Booster0Audi Specialists0.000Garage0.00024 Jul 2009, 17:4824 Jul 2009, 17:48
Pivot / Current Stablizer0Audi Specialists0.000Garage0.00024 Jul 2009, 18:1224 Jul 2009, 18:12
Osir Design / Aluminum Engine Oil Cap Ring0Osir Design0.000(1) Self Fit / DIY0.00024 Jul 2009, 18:3524 Jul 2009, 18:35
Defi / BF Turbo Electronics Gauges0Audi Specialists0.000Garage0.00024 Jul 2009, 18:5624 Jul 2009, 18:56
Defi / BF Water Temp Electronics Gauges0Audi Specialists0.000Garage0.00024 Jul 2009, 18:5724 Jul 2009, 18:57
Defi / BF Controller 2.00Audi Specialists0.000Garage0.00024 Jul 2009, 18:5824 Jul 2009, 18:58
Pivot / Engine Start Button0Audi Specialists0.000(1) Self Fit / DIY0.00024 Jul 2009, 19:0024 Jul 2009, 19:00
Apexi / RSM (Rev/Speed Meter) Black Version0Audi Specialists0.000Garage0.00024 Jul 2009, 20:0724 Jul 2009, 20:07

Transmission
ModificationsProduct ratingPurchased fromPricePurchase ratingInstalled byInstallation costInstallation ratingCreatedUpdatedComments
Neuspeed / Short Shift0Audi Specialists0.000Garage0.00024 Jul 2009, 17:3224 Jul 2009, 17:32

Exhaust
ModificationsProduct ratingPurchased fromPricePurchase ratingInstalled byInstallation costInstallation ratingCreatedUpdatedComments
Larini / Stainless Twin Sport Exhaust0Larini Systems0.000Garage0.00024 Jul 2009, 17:4424 Jul 2009, 17:44
Milltek / Hi Flow Cat0Audi Specialists0.000Garage0.00024 Jul 2009, 17:4524 Jul 2009, 17:45

Suspension
ModificationsProduct ratingPurchased fromPricePurchase ratingInstalled byInstallation costInstallation ratingCreatedUpdatedComments
H&R / Coilover Kit0Audi Specialists0.000Garage0.00024 Jul 2009, 17:4624 Jul 2009, 17:46
(5) VW OEM Parts / Main Dealer / R32 Front ARB0(5) VW OEM Parts / Main Dealer0.000Garage0.00024 Jul 2009, 17:5024 Jul 2009, 17:50
(5) VW OEM Parts / Main Dealer / R32 Rear ARB0(5) VW OEM Parts / Main Dealer0.000Garage0.00024 Jul 2009, 17:5024 Jul 2009, 17:50

Brakes
ModificationsProduct ratingPurchased fromPricePurchase ratingInstalled byInstallation costInstallation ratingCreatedUpdatedComments
Brembo / Brembo GT F50 Calipers w/ 355mm Perforated Rotors0Audi Specialists0.000Garage0.00024 Jul 2009, 17:5324 Jul 2009, 17:53
Zimmermann / Rear Perforated Rotors0Audi Specialists0.000Garage0.00024 Jul 2009, 17:5524 Jul 2009, 17:55
Ferodo / Brake Pads0Audi Specialists0.000Garage0.00024 Jul 2009, 17:5624 Jul 2009, 17:56
Brembo / Stainless Steel Brakes Hoses0Audi Specialists0.000Garage0.00024 Jul 2009, 17:5724 Jul 2009, 17:57

Interior
ModificationsProduct ratingPurchased fromPricePurchase ratingInstalled byInstallation costInstallation ratingCreatedUpdatedComments
(7) Local Garage / Leather wrapped Door cards with Color Matched Nappa insert0Audi Specialists0.000Garage0.00024 Jul 2009, 18:4724 Jul 2009, 18:47
Recaro / Pole Position ABE (Nappa Leather)0Capital Seating and Vision0.000Garage0.00024 Jul 2009, 18:5024 Jul 2009, 18:50
Recaro / Recaro Alloy Mounts0Capital Seating and Vision0.000Garage0.00024 Jul 2009, 18:5124 Jul 2009, 18:51
Recaro / Manual Bucket Slides (for Porsche 996)0Capital Seating and Vision0.000Garage0.00024 Jul 2009, 18:5224 Jul 2009, 18:52
The TT Shop / Single Cupholder0The TT Shop0.000(1) Self Fit / DIY0.00024 Jul 2009, 18:5324 Jul 2009, 18:53
The TT Shop / Armrest (Color Matched Nappa)0The TT Shop0.000(1) Self Fit / DIY0.00024 Jul 2009, 18:5424 Jul 2009, 18:54
Momo / Commando R 350mm Steering Wheel0Momo0.000(1) Self Fit / DIY0.00024 Jul 2009, 19:0124 Jul 2009, 19:01
Momo / Steering Hub with Airbag Bypass Resistor0Momo0.000(1) Self Fit / DIY0.00024 Jul 2009, 19:0224 Jul 2009, 19:02
Momo / MOMO x Audi Custom Horn Button0Generic Online0.000(1) Self Fit / DIY0.00024 Jul 2009, 19:0424 Jul 2009, 19:04
(5) VW OEM Parts / Main Dealer / Steering Wheel Airbag Harness0(5) VW OEM Parts / Main Dealer0.000(1) Self Fit / DIY0.00024 Jul 2009, 19:0524 Jul 2009, 19:05
(3) Generic / Non-Branded / Color Matched Nappa Gear Gaiter0Audi Specialists0.000(1) Self Fit / DIY0.00024 Jul 2009, 19:0724 Jul 2009, 19:07
(4) Audi OEM Parts / Main Dealer / Post 2003 Alloy Gear Knob0Ebay0.000(1) Self Fit / DIY0.00024 Jul 2009, 19:0824 Jul 2009, 19:08
Osir Design / Orbit Ring0Osir Design0.000(1) Self Fit / DIY0.00024 Jul 2009, 19:0924 Jul 2009, 19:09
Osir Design / Carbon Door Handles0Osir Design0.000(1) Self Fit / DIY0.00024 Jul 2009, 19:1024 Jul 2009, 19:10
Osir Design / Carbon handbrake0Osir Design0.000(1) Self Fit / DIY0.00024 Jul 2009, 19:1024 Jul 2009, 19:10
Osir Design / C Frame Carbon0Osir Design0.000(1) Self Fit / DIY0.00024 Jul 2009, 19:1224 Jul 2009, 19:12
Osir Design / D2 (Knee Pads)0Osir Design0.000(1) Self Fit / DIY0.00024 Jul 2009, 19:1424 Jul 2009, 19:14
Osir Design / Ogas Pedal0Osir Design0.000(1) Self Fit / DIY0.00024 Jul 2009, 19:1424 Jul 2009, 19:14
The TT Shop / Mirror Switch Cover0The TT Shop0.000(1) Self Fit / DIY0.00024 Jul 2009, 19:1524 Jul 2009, 19:15
The TT Shop / Aluminum Dashboard Top Air Vent Cover0The TT Shop0.000(1) Self Fit / DIY0.00024 Jul 2009, 19:1724 Jul 2009, 19:17
APR Motorsport / 'APR Tuned' Emblem0Audi Specialists0.000(1) Self Fit / DIY0.00024 Jul 2009, 19:1824 Jul 2009, 19:18
Momo / Floor Mats0Momo0.000(1) Self Fit / DIY0.00024 Jul 2009, 19:1924 Jul 2009, 19:19
Valentine 1 / V1 Radar Detector0Generic Online0.000(1) Self Fit / DIY0.00024 Jul 2009, 19:2124 Jul 2009, 19:21
Valentine 1 / Remote Concealed Display Unit0Generic Online0.000(1) Self Fit / DIY0.00024 Jul 2009, 19:2224 Jul 2009, 19:22
(3) Generic / Non-Branded / 4.3" GPS Navigator (USB Hardwired)0(3) Generic / Non-Branded0.000(1) Self Fit / DIY0.00024 Jul 2009, 19:2424 Jul 2009, 19:24
3M / UV-blocking Windows Tinting Film0(7) Local Garage0.000Garage0.00024 Jul 2009, 20:0524 Jul 2009, 20:05

Exterior
ModificationsProduct ratingPurchased fromPricePurchase ratingInstalled byInstallation costInstallation ratingCreatedUpdatedComments
Caractere / Grill0Audi Specialists0.000Garage0.00024 Jul 2009, 18:1324 Jul 2009, 18:13
(4) Audi OEM Parts / Main Dealer / B7 A4 DTM Carbon Fiber Front Lip0(4) Audi OEM Parts / Main Dealer0.000Garage0.00024 Jul 2009, 18:1524 Jul 2009, 18:15
DMC / Side Skirt Scopes0Audi Specialists0.000Garage0.00024 Jul 2009, 18:1724 Jul 2009, 18:17
Osir Design / DTM Carbon Valance0Osir Design0.000(1) Self Fit / DIY0.00024 Jul 2009, 18:1924 Jul 2009, 18:19
Osir Design / v1 Fenders0Osir Design0.000Garage0.00024 Jul 2009, 18:2024 Jul 2009, 18:20
Osir Design / M1 Carbon Mirrors0Osir Design0.000(1) Self Fit / DIY0.00024 Jul 2009, 18:2124 Jul 2009, 18:21
Osir Design / M1 Carbon Mirror Stems0Osir Design0.000(1) Self Fit / DIY0.00024 Jul 2009, 18:2224 Jul 2009, 18:22
Osir Design / Telson Carbon Spoiler Extension0Osir Design0.000(1) Self Fit / DIY0.00024 Jul 2009, 18:2424 Jul 2009, 18:24
(4) Audi OEM Parts / Main Dealer / Body Color-coded Headlight Housing0Audi Specialists0.000Garage0.00024 Jul 2009, 18:2624 Jul 2009, 18:26
(4) Audi OEM Parts / Main Dealer / Black A-Pillars0Audi Specialists0.000Garage0.00024 Jul 2009, 18:2724 Jul 2009, 18:27
(4) Audi OEM Parts / Main Dealer / Black Rear Spoiler0Audi Specialists0.000Garage0.00024 Jul 2009, 18:2824 Jul 2009, 18:28
(4) Audi OEM Parts / Main Dealer / Custom Colored Engine Bay Covers0(1) Self Fit / DIY0.000(1) Self Fit / DIY0.00024 Jul 2009, 18:3324 Jul 2009, 18:33
(4) Audi OEM Parts / Main Dealer / Black Front Audi Emblem0(1) Self Fit / DIY0.000(1) Self Fit / DIY0.00024 Jul 2009, 18:3724 Jul 2009, 18:37
(4) Audi OEM Parts / Main Dealer / Audi DTM Badges0(4) Audi OEM Parts / Main Dealer0.000(1) Self Fit / DIY0.00024 Jul 2009, 18:3824 Jul 2009, 18:38
MasterChamp / Carbon Fiber Rear Audi 4-rings Emblem0Ebay0.000(1) Self Fit / DIY0.00024 Jul 2009, 18:3924 Jul 2009, 18:39
(4) Audi OEM Parts / Main Dealer / Aero Wipers System0(4) Audi OEM Parts / Main Dealer0.000(1) Self Fit / DIY0.00024 Jul 2009, 18:4224 Jul 2009, 18:42
(4) Audi OEM Parts / Main Dealer / Red Rear Towing-Hook Eye0(1) Self Fit / DIY0.000(1) Self Fit / DIY0.00024 Jul 2009, 18:4424 Jul 2009, 18:44

Audio
ModificationsProduct ratingPurchased fromPricePurchase ratingInstalled byInstallation costInstallation ratingCreatedUpdatedComments
The TT Shop / BeeSting Aluminum Short Antenna0The TT Shop0.000(1) Self Fit / DIY0.00024 Jul 2009, 18:2924 Jul 2009, 18:29
Custom / 2DIN Center Console Conversion0Audi Specialists0.000(1) Self Fit / DIY0.00024 Jul 2009, 19:5324 Jul 2009, 19:53
JVC / AVX805 2DIN Headunit w/ 7" Touch Screen0(7) Local Garage0.000Garage0.00024 Jul 2009, 19:5424 Jul 2009, 19:54
(1) Self Fit / DIY / 160GB Harddisk Drive (MP3 and AVI)0(1) Self Fit / DIY0.000(1) Self Fit / DIY0.00024 Jul 2009, 19:5524 Jul 2009, 19:55
Alpine / FV505 4-way Amplifier0(7) Local Garage0.000Garage0.00024 Jul 2009, 19:5624 Jul 2009, 19:56
Sony / Sony 9" Subwoofer (TTR OEM fitting)0(7) Local Garage0.000Garage0.00024 Jul 2009, 19:5824 Jul 2009, 19:58
MBQ Audio / 2-Way Speakers w/ repositioned Tweeters0(7) Local Garage0.000Garage0.00024 Jul 2009, 20:0024 Jul 2009, 20:00
Alpha / Digital TV Tuner w/ Dual Amplified Antenna0(7) Local Garage0.000(1) Self Fit / DIY0.00024 Jul 2009, 20:0224 Jul 2009, 20:02
Clarion / Center Speaker for 5.10(7) Local Garage0.000(1) Self Fit / DIY0.00024 Jul 2009, 20:1824 Jul 2009, 20:18

Alloys & Tyres
ModificationsProduct ratingPurchased fromPricePurchase ratingInstalled byInstallation costInstallation ratingCreatedUpdatedComments
RAYS Wheels / 18" Volk Racing Progressiv Spoke Forged Monoblock0Audi Specialists0.000Garage0.00024 Jul 2009, 18:0024 Jul 2009, 18:00
(7) Local Garage / Custom Colored Alloys0Audi Specialists0.000Garage0.00024 Jul 2009, 18:0524 Jul 2009, 18:05
(7) Local Garage / Custom Spacers0Audi Specialists0.000Garage0.00024 Jul 2009, 18:0824 Jul 2009, 18:08
Bridgestone / RE-0010Audi Specialists0.000Garage0.00024 Jul 2009, 18:1024 Jul 2009, 18:10

Lighting
ModificationsProduct ratingPurchased fromPricePurchase ratingInstalled byInstallation costInstallation ratingCreatedUpdatedComments
Philips / 6000K D2S HID Main Beams0Audi Specialists0.000(1) Self Fit / DIY0.00024 Jul 2009, 19:2824 Jul 2009, 19:28
PIAA / 3300K H7 Halogen High Beams0Audi Specialists0.000(1) Self Fit / DIY0.00024 Jul 2009, 19:3024 Jul 2009, 19:30
PIAA / 3300K H3 Halogen Foglights0Audi Specialists0.000(1) Self Fit / DIY0.00024 Jul 2009, 19:3124 Jul 2009, 19:31
(4) Audi OEM Parts / Main Dealer / Dual Brake Lights0(1) Self Fit / DIY0.000(1) Self Fit / DIY0.00024 Jul 2009, 19:3224 Jul 2009, 19:32
(4) Audi OEM Parts / Main Dealer / White LED Stripes City Lights / Side Markers (Mk2 TTS look)0(1) Self Fit / DIY0.000(1) Self Fit / DIY0.00024 Jul 2009, 19:3324 Jul 2009, 19:33
(4) Audi OEM Parts / Main Dealer / Amber LED Stripes Front Signal Indicators0(1) Self Fit / DIY0.000(1) Self Fit / DIY0.00024 Jul 2009, 19:3424 Jul 2009, 19:34
Ultraleds / Hi-Flux Amber LED Side Turn Signal Markers0UltraLeds0.000(1) Self Fit / DIY0.00024 Jul 2009, 19:3624 Jul 2009, 19:36
(1) Self Fit / DIY / 1W CREE LED Reverse Light w/ Torch Lens0(1) Self Fit / DIY0.000(1) Self Fit / DIY0.00024 Jul 2009, 19:3924 Jul 2009, 19:39
(3) Generic / Non-Branded / Hi-Flux White SMD LED Rear Plate Lights0(3) Generic / Non-Branded0.000(1) Self Fit / DIY0.00024 Jul 2009, 19:4124 Jul 2009, 19:41
(1) Self Fit / DIY / 12 LED White SMD LED Boot Lights0(1) Self Fit / DIY0.000(1) Self Fit / DIY0.00024 Jul 2009, 19:4324 Jul 2009, 19:43
(1) Self Fit / DIY / Red Under-Doors LED Stripes0(1) Self Fit / DIY0.000(1) Self Fit / DIY0.00024 Jul 2009, 19:4424 Jul 2009, 19:44
(3) Generic / Non-Branded / LED Interior Lights0(3) Generic / Non-Branded0.000(1) Self Fit / DIY0.00024 Jul 2009, 19:4524 Jul 2009, 19:45
(1) Self Fit / DIY / White LED Conversion - Dash, A/C Control, Light Control, Centre Console0(1) Self Fit / DIY0.000(1) Self Fit / DIY0.00024 Jul 2009, 19:4724 Jul 2009, 19:47
Lamin-X / Smoke Tinting Film - Rear Lights0Lamin-X0.000(1) Self Fit / DIY0.00024 Jul 2009, 19:5024 Jul 2009, 19:50
Osir Design / Smoked Corners0Osir Design0.000(1) Self Fit / DIY0.00024 Jul 2009, 19:5024 Jul 2009, 19:50

Security
ModificationsProduct ratingPurchased fromPricePurchase ratingInstalled byInstallation costInstallation ratingCreatedUpdatedComments
(3) Generic / Non-Branded / Rearview Parking Camera0(7) Local Garage0.000(1) Self Fit / DIY0.00024 Jul 2009, 20:0324 Jul 2009, 20:03
(3) Generic / Non-Branded / Rear Parking Sensors (body color matched)0(7) Local Garage0.000Garage0.00024 Jul 2009, 20:0424 Jul 2009, 20:04

Comments

There are no comments to display.
Top